Dewpoint
54 53 51 50 50 50 49 49 49 49 47 46 47 48 49 48 47 49 48 48 46 46 46 46 47 46 43 31 33 40 44 46 46 46 45 46 42 38 34 40 42 42 42 44 46 45 45
56 54 53 51 50 50 50 49 48 49 48 46 45 47 49 49 46 48 49 48 47 46 46 46 46 46 38 29 36 38 38 42 43 46 46 46 44 42 35 35 41 42 41 45 46 44 42
58 56 54 52 50 50 50 49 49 49 49 48 47 45 47 48 46 46 48 48 48 47 47 45 46 41 31 31 36 37 39 41 41 46 45 48 46 43 40 31 40 42 39 43 46 44 41
59 58 55 53 51 50 50 49 49 47 48 49 48 46 46 48 46 46 48 49 48 47 47 46 46 40 28 35 37 38 40 39 42 47 47 47 47 44 40 36 36 37 41 37 41 41 42
60 59 56 54 51 50 50 49 49 49 48 49 48 46 44 46 46 46 48 49 46 47 46 45 40 34 29 35 35 39 40 40 45 47 45 44 45 41 39 34 32 32 33 36 38 44 40
61 60 57 55 52 50 50 49 49 49 47 48 47 45 45 46 46 47 49 48 43 45 44 37 34 32 32 32 36 39 41 41 44 41 40 41 43 38 36 35 29 29 27 29 33 40 39
61 61 58 55 53 50 50 49 49 49 48 48 48 46 46 47 47 47 47 40 39 36 35 32 33 31 33 36 38 39 40 40 41 40 36 38 38 34 31 32 27 27 26 24 29 38 38
60 61 59 56 53 51 50 49 49 49 48 47 46 45 46 48 46 48 46 34 38 41 34 33 33 34 36 38 36 38 41 36 37 35 38 37 34 32 30 29 28 30 24 23 32 36 38
60 61 59 57 54 51 50 49 49 49 48 47 47 45 47 48 46 47 38 39 41 40 36 34 35 32 36 37 37 38 39 37 32 32 34 33 37 35 32 29 30 30 28 27 29 31 31
60 60 60 57 54 51 50 49 49 49 49 47 46 45 47 46 46 39 37 40 40 40 33 30 31 35 36 35 35 40 41 39 32 31 33 34 35 34 32 31 29 28 28 32 32 29 26
60 60 60 57 55 52 50 49 49 49 49 48 47 46 46 47 45 40 40 41 41 40 21 31 34 40 37 33 34 37 41 39 30 30 34 33 35 33 31 28 29 28 29 32 32 28 27
61 60 60 58 55 52 50 49 49 49 49 48 48 46 47 45 44 41 42 41 40 32 17 31 33 33 32 31 31 36 37 39 37 30 33 35 38 37 32 32 29 33 32 29 29 28 27
56 60 59 58 55 52 50 49 49 49 49 48 47 47 48 44 41 43 43 40 32 26 30 30 29 31 29 28 29 31 33 32 31 29 29 33 35 35 37 34 34 33 29 25 24 25 23
54 59 60 57 55 52 50 49 49 48 48 48 48 48 46 44 44 43 42 35 25 27 31 33 32 30 30 28 28 28 28 27 32 31 30 26 26 35 35 35 31 31 29 22 17 18 17
54 55 59 57 55 52 49 49 48 48 47 49 50 48 45 45 46 45 40 32 29 32 34 30 29 29 29 29 29 28 27 26 27 30 29 28 27 34 35 33 32 29 26 28 29 24 18
54 54 59 57 54 52 49 48 48 48 47 50 46 45 44 46 46 43 37 31 31 31 31 31 26 27 23 28 30 28 27 26 25 27 31 35 29 35 35 36 36 35 34 27 29 20 14
50 55 58 56 54 52 50 49 48 48 48 50 45 42 46 46 45 40 23 31 30 32 32 30 28 25 23 23 29 28 27 26 26 25 30 35 34 33 36 34 32 34 33 34 28 23 14
51 54 57 55 54 52 50 49 48 47 48 49 43 38 45 46 40 39 35 30 32 30 33 33 32 31 28 25 23 22 27 24 32 33 29 30 34 29 31 36 35 32 32 34 28 24 23
52 54 57 55 53 51 50 49 48 47 49 44 41 41 42 44 37 32 28 25 30 31 31 31 30 29 27 25 22 19 21 29 33 35 35 33 32 27 30 33 36 35 33 31 31 31 25
52 52 57 55 53 51 49 49 48 48 49 44 36 31 35 40 33 26 21 18 21 32 32 30 28 28 27 24 22 21 21 25 32 32 37 38 33 25 20 26 31 31 32 32 32 29 26
51 51 56 54 52 50 49 48 48 48 49 45 33 29 33 27 25 24 20 20 15 19 29 29 27 26 21 23 20 16 13 14 25 36 33 35 29 33 29 27 31 33 30 31 33 33 27
50 51 53 53 52 50 49 48 48 48 49 37 29 22 22 22 22 20 22 17 17 18 25 15 19 17 20 18 16 15 19 21 22 33 34 33 30 31 31 34 33 31 30 29 30 31 32
50 50 53 53 52 50 48 48 48 47 44 34 33 30 26 21 19 16 15 16 18 22 17 19 20 18 16 20 25 24 23 23 28 30 29 29 29 28 27 32 31 27 30 29 29 29 30
50 50 54 52 51 49 48 47 47 47 42 36 33 28 19 14 16 14 17 18 19 20 19 18 19 19 24 25 24 23 22 22 22 27 30 28 26 26 28 29 20 24 26 30 28 29 29
47 49 53 52 50 48 48 47 46 47 45 34 35 33 19 12 13 12 16 18 18 20 21 22 22 25 24 25 23 23 25 27 27 24 30 30 27 25 26 25 22 21 23 27 28 27 28
48 48 51 51 49 48 47 47 46 47 43 34 34 36 30 14 13 16 17 19 16 15 21 23 24 25 27 27 24 21 18 21 26 29 32 31 29 28 28 23 20 21 23 24 24 19 28
48 52 52 51 48 47 47 46 45 46 41 35 34 37 32 22 23 21 17 20 23 22 20 24 23 24 28 24 23 24 20 24 23 25 24 28 28 23 26 25 24 25 25 27 18 27 34
48 48 51 50 48 47 46 45 44 45 39 37 36 39 34 28 27 26 25 24 25 24 21 26 26 28 25 23 21 21 20 23 23 23 26 26 25 25 27 25 22 28 28 22 29 31 31
47 49 50 48 47 46 45 44 43 41 40 39 31 37 37 33 29 30 31 32 30 29 27 27 25 23 27 26 26 24 22 23 22 20 28 24 30 29 32 28 29 29 28 28 29 28 31
Wind_Speed
13 13 12 12 11 13 11 9 10 11 13 13 14 14 14 12 13 15 14 14 12 12 14 15 17 17 12 5 7 1 7 6 10 13 15 10 10 9 14 13 13 13 9 11 9 9 10
16 14 14 11 12 11 12 10 9 10 11 13 12 14 14 13 12 15 15 14 14 12 13 14 17 20 9 9 7 4 4 6 9 13 12 6 6 10 5 18 21 16 12 16 9 4 6
17 16 14 13 12 11 11 11 10 9 11 11 12 12 14 14 12 14 15 14 13 11 13 13 15 11 8 7 9 8 3 4 10 3 6 6 10 7 14 7 18 18 15 18 16 21 4
20 18 16 14 13 12 10 11 10 8 10 11 10 12 14 14 12 13 15 14 13 11 13 13 12 9 3 4 7 13 11 7 4 6 7 8 9 6 5 4 4 18 16 5 7 8 4
22 20 18 15 14 13 11 10 11 9 9 11 10 12 12 13 12 13 15 15 14 13 13 12 7 5 4 4 11 10 10 4 13 11 11 6 4 5 4 3 7 11 6 12 6 14 5
23 23 20 17 15 14 12 10 11 9 8 9 9 11 12 12 11 13 16 15 11 14 10 9 6 2 9 9 7 8 5 3 7 8 8 10 10 7 1 8 15 15 21 18 15 15 14
20 25 20 19 16 14 13 11 11 10 9 9 9 10 11 12 10 11 13 6 3 2 11 7 6 5 8 9 2 6 5 7 7 7 4 5 2 7 10 15 7 10 14 16 20 18 17
26 24 23 20 18 16 14 12 12 9 9 8 8 9 10 10 9 10 9 3 4 2 3 4 1 5 3 4 5 8 10 1 7 9 9 5 6 12 13 13 11 5 15 19 15 14 16
23 26 26 22 20 17 15 13 12 9 10 7 7 8 8 7 7 6 3 6 3 3 3 2 2 3 2 5 5 6 3 2 5 6 4 5 1 9 9 10 8 11 17 9 7 10 6
24 27 27 23 21 18 16 14 12 9 10 6 6 6 5 4 3 1 2 3 2 2 3 6 2 3 1 2 3 1 3 2 2 5 6 5 5 6 6 9 10 10 2 8 5 5 5
24 23 28 25 22 19 19 14 12 10 9 5 5 5 4 5 6 1 5 2 1 2 2 5 2 1 3 2 6 3 1 3 5 6 2 1 4 7 10 10 9 4 8 8 3 8 10
31 26 30 27 26 22 20 16 13 10 9 5 4 5 5 4 5 5 4 3 2 0 3 2 2 2 4 2 4 4 3 4 4 7 2 2 7 5 8 11 4 5 2 4 3 2 5
34 29 31 29 27 24 21 18 13 11 8 6 4 7 5 5 1 6 4 3 2 3 1 3 3 1 4 2 4 8 9 7 6 6 6 1 3 3 2 2 4 8 10 5 3 7 10
35 32 31 31 28 25 22 19 15 11 7 6 9 9 4 1 6 6 4 3 4 1 4 4 2 5 5 4 4 9 6 12 17 10 7 9 6 11 11 6 5 10 12 6 6 6 7
38 36 31 30 30 26 23 21 17 12 7 11 15 6 4 4 4 4 5 4 2 3 5 3 2 6 5 8 4 5 15 17 15 20 8 9 7 7 2 9 4 11 12 7 4 8 5
36 33 33 32 32 29 25 22 19 15 12 19 7 5 6 6 3 5 1 2 3 4 4 2 4 7 8 9 6 5 7 10 22 21 15 2 5 9 6 2 5 2 2 7 5 4 4
47 29 36 35 33 31 27 24 21 18 17 18 1 4 6 7 4 6 2 2 3 6 5 4 5 7 9 10 13 6 6 13 10 13 16 9 7 3 8 11 12 7 3 5 2 7 2
38 31 36 37 35 32 29 26 23 21 19 13 3 4 8 8 4 4 2 3 1 5 7 6 6 9 12 14 15 14 11 13 4 15 13 11 3 7 12 6 11 13 12 8 6 5 6
34 31 34 39 37 33 30 28 26 25 28 9 5 5 3 5 4 6 3 3 4 6 8 5 6 8 7 8 8 10 9 4 2 4 5 12 8 2 6 3 7 10 15 19 12 8 8
14 29 36 39 38 35 33 30 28 28 33 5 6 6 4 6 5 1 5 6 4 8 6 6 10 10 12 13 16 12 14 9 12 8 15 5 4 13 23 6 7 8 18 22 17 13 13
27 25 29 41 40 36 35 31 29 29 29 3 4 4 7 8 9 5 2 1 5 4 6 3 5 12 8 6 13 18 18 18 11 18 7 8 8 11 19 11 6 4 14 23 28 21 18
19 21 24 40 41 38 34 32 30 26 22 3 5 6 2 4 7 7 6 7 6 3 3 5 10 8 7 9 13 19 14 12 7 8 7 9 3 8 19 6 2 8 15 18 27 27 25
19 23 21 40 41 39 36 33 31 30 21 7 4 4 4 7 7 6 4 2 1 3 1 2 3 7 10 7 8 13 12 13 6 3 5 4 6 11 3 11 6 6 21 23 18 22 23
21 24 20 41 41 38 36 34 32 36 20 4 7 4 4 4 8 7 3 2 1 3 5 3 6 6 5 11 14 15 17 18 17 14 12 2 3 2 6 13 5 5 3 28 23 20 22
22 24 26 42 41 38 35 34 32 35 22 3 2 2 4 5 7 4 5 3 3 4 3 2 3 5 10 7 4 6 1 1 6 17 17 11 1 5 5 8 3 4 3 7 15 16 18
24 24 22 38 39 35 32 31 28 30 22 5 1 2 2 9 1 7 7 5 3 4 4 4 3 3 4 3 1 2 3 5 3 1 7 16 10 8 5 2 1 3 2 3 6 6 5
24 28 34 38 38 35 30 29 27 27 21 7 1 2 0 7 3 2 3 4 3 3 1 4 1 2 3 2 2 2 4 4 4 4 3 5 6 12 10 6 6 9 9 4 0 1 4
18 30 28 37 34 33 29 25 25 29 21 7 3 2 2 6 5 5 2 5 4 1 1 4 2 2 3 1 1 1 3 5 3 3 2 8 6 6 6 5 5 8 5 3 3 3 2
20 20 36 36 32 27 26 25 28 28 21 10 5 2 10 12 5 9 13 12 9 7 3 2 2 2 4 1 2 2 3 2 6 3 2 3 2 4 4 0 5 6 5 7 9 4 4
Wind_Direction
280 284 290 298 305 313 322 337 344 345 337 336 334 336 332 329 327 333 331 334 333 329 327 325 330 331 322 51 20 343 345 16 339 295 277 252 218 194 191 174 170 230 284 270 305 137 157
266 272 276 282 292 302 311 323 338 339 333 333 332 333 332 326 329 322 327 331 333 326 321 320 325 330 273 44 3 36 1 348 264 258 236 243 304 338 293 175 164 199 229 285 273 252 211
258 266 268 272 278 287 298 309 322 334 328 326 327 334 328 327 322 318 322 326 327 327 319 316 319 320 20 13 351 350 353 261 272 303 259 46 348 354 341 215 162 151 194 248 190 236 135
245 250 257 262 267 275 283 296 307 325 327 326 329 330 327 326 319 315 317 319 318 306 309 304 308 313 55 17 318 5 346 292 228 37 57 8 341 334 295 345 100 147 192 177 306 198 169
244 241 247 248 257 264 272 284 295 312 323 323 328 324 326 324 317 312 310 312 299 288 289 284 279 300 43 353 17 353 338 26 81 58 36 46 14 344 341 176 179 207 178 190 219 247 161
249 234 234 240 244 254 263 274 286 301 316 315 322 324 326 320 317 311 307 295 282 299 246 250 306 71 35 1 357 344 320 355 93 64 31 35 5 342 288 200 185 198 214 196 192 204 226
261 239 224 232 237 245 254 264 276 290 305 315 327 326 323 319 316 312 317 270 244 175 37 52 25 50 11 353 350 51 332 118 113 58 64 30 314 219 219 215 225 213 214 235 198 171 207
264 240 222 220 229 234 245 255 267 281 292 310 320 319 318 316 313 308 290 342 49 16 24 70 66 74 34 294 62 45 358 89 115 107 111 152 234 231 222 225 239 231 220 227 81 161 181
257 241 225 213 222 225 234 247 260 270 283 303 317 314 313 311 310 289 323 72 355 4 283 69 95 40 5 352 40 34 4 358 149 152 139 183 198 305 270 233 192 224 216 179 173 185 215
246 249 223 213 213 218 229 235 251 260 274 292 304 306 299 295 300 103 109 116 6 348 56 352 5 76 256 299 74 330 340 126 157 160 175 230 333 285 253 218 231 221 0 84 305 176 226
236 233 220 206 206 209 223 221 239 250 265 276 286 282 236 223 329 234 97 151 349 245 68 320 43 74 299 336 150 152 263 265 173 154 201 129 314 216 246 220 221 280 139 155 237 252 302
251 215 217 209 196 199 212 212 224 240 258 259 262 230 200 214 235 91 130 153 220 353 42 355 334 313 223 171 174 154 220 219 291 182 205 268 289 270 240 307 192 102 189 148 125 315 262
303 219 212 211 195 192 202 206 208 228 245 246 216 195 188 303 66 153 170 200 90 41 154 292 309 268 309 212 195 204 199 193 194 167 211 327 291 287 87 252 184 209 178 136 220 214 235
290 258 214 205 191 190 197 198 198 211 227 234 169 171 225 37 121 161 218 192 69 197 186 252 272 281 254 192 228 206 246 231 225 256 160 193 249 199 188 207 187 207 210 151 219 211 239
282 296 209 196 186 185 197 196 191 189 197 175 152 198 173 172 145 245 237 93 148 178 164 217 213 256 242 207 234 224 230 241 228 222 214 197 237 182 224 191 221 213 230 281 286 258 265
279 295 200 188 184 180 194 192 185 175 178 168 163 195 145 168 181 234 235 138 160 160 187 185 254 198 299 197 196 201 236 271 226 227 211 216 241 226 169 90 203 252 23 203 185 210 228
286 280 199 184 184 179 187 188 180 172 177 181 186 213 139 157 198 238 149 164 190 187 196 221 260 282 282 278 208 216 262 296 210 214 197 157 234 176 146 206 186 163 176 224 243 245 256
279 265 197 179 182 178 180 184 177 170 171 163 205 206 153 171 214 213 214 190 253 209 190 253 274 265 267 288 297 281 233 256 119 317 199 215 271 201 215 193 244 236 201 192 186 182 226
275 265 220 180 176 175 179 182 175 169 169 155 195 126 170 204 196 189 152 234 237 208 204 220 247 226 300 295 298 280 331 44 334 203 257 181 216 169 169 231 189 219 225 220 221 323 242
258 309 214 179 172 175 178 180 174 175 188 164 167 152 147 206 262 248 183 221 226 203 265 261 270 287 278 272 269 266 269 14 340 280 212 231 277 216 221 156 148 200 211 213 198 212 214
267 283 206 177 170 175 176 179 176 178 190 151 216 190 165 181 210 195 142 172 232 224 209 224 262 243 320 285 294 298 326 331 327 357 265 181 239 254 255 225 189 184 233 207 208 213 209
279 285 272 178 171 177 175 178 175 174 168 201 201 169 159 119 121 177 180 207 229 213 178 249 257 325 330 295 299 309 320 321 288 336 34 358 268 233 243 216 271 230 233 222 219 221 237
275 323 245 182 171 172 173 172 173 167 161 191 197 266 134 156 166 175 213 201 129 92 354 287 358 325 301 323 327 300 297 286 274 219 328 331 6 336 216 184 181 262 230 228 222 224 224
298 300 237 177 169 170 173 170 174 172 182 156 210 173 148 177 186 194 143 110 203 223 269 340 344 290 24 332 302 276 252 247 245 226 205 264 343 249 302 137 215 225 359 208 210 214 226
295 289 207 174 166 171 170 170 175 179 187 149 219 200 166 140 175 161 142 152 145 169 203 277 348 17 341 306 312 326 114 358 268 228 184 194 251 261 244 204 342 235 197 156 194 240 239
295 275 253 171 162 169 170 171 174 177 177 123 178 294 290 129 223 96 143 146 213 221 166 139 102 351 290 280 314 331 340 357 23 66 51 170 202 276 323 322 214 360 103 69 134 262 54
307 284 194 168 164 164 169 168 170 170 169 144 172 321 67 108 54 31 137 139 91 84 79 110 51 201 255 23 296 332 324 0 347 14 133 176 201 231 244 262 267 171 154 145 178 209 92
291 309 184 161 160 161 161 165 163 161 160 132 136 298 75 95 70 40 100 117 106 152 170 124 156 228 205 142 170 310 292 5 308 313 208 195 197 204 198 242 256 132 113 160 61 66 58
303 287 166 155 155 150 148 153 158 157 158 158 126 272 56 81 102 75 64 48 57 44 78 97 62 71 40 318 189 290 275 276 351 306 200 273 29 317 239 201 338 221 325 330 355 330 9